This is the latest recevied weather packets stored in our database for station/object KD5FHA. If no packets are shown the sender has not sent any weather packets the latest 10 day(s).
| Time | Temp. | Humidity | Pressure | Rain* | Wind** | Luminosity | Snow |
|---|---|---|---|---|---|---|---|
| 1777985967 | 21.67° C | 87% | 1005.8 hPa | 0 mm | - | 77 W/m² | - |
| 1777985664 | 21.67° C | 88% | 1005.7 hPa | 0 mm | - | 77 W/m² | - |
| 1777985360 | 21.67° C | 88% | 1005.8 hPa | 0 mm | - | 70 W/m² | - |
| 1777985057 | 21.11° C | 89% | 1005.7 hPa | 0 mm | - | 81 W/m² | - |
| 1777984754 | 21.11° C | 89% | 1005.5 hPa | 0 mm | - | 60 W/m² | - |
| 1777984450 | 21.11° C | 89% | 1005.5 hPa | 0 mm | - | 49 W/m² | - |
| 1777984146 | 21.11° C | 89% | 1005.3 hPa | 0 mm | - | 39 W/m² | - |
| 1777983844 | 21.11° C | 89% | 1005.4 hPa | 0 mm | - | 33 W/m² | - |
| 1777983540 | 21.11° C | 90% | 1005.2 hPa | 0 mm | - | 31 W/m² | - |
| 1777983237 | 21.11° C | 90% | 1005.3 hPa | 0 mm | - | 26 W/m² | - |
| 1777982933 | 21.11° C | 90% | 1005.1 hPa | 0 mm | - | 20 W/m² | - |
| 1777982629 | 20.56° C | 90% | 1005.1 hPa | 0 mm | - | 16 W/m² | - |
| 1777982328 | 20.56° C | 90% | 1005.1 hPa | 0 mm | - | 12 W/m² | - |
| 1777982025 | 20.56° C | 90% | 1005.2 hPa | 0 mm | - | 9 W/m² | - |
| 1777981723 | 20.56° C | 90% | 1005.2 hPa | 0 mm | - | 5 W/m² | - |
| 1777981419 | 20.56° C | 90% | 1005.2 hPa | 0 mm | - | 3 W/m² | - |
| 1777981116 | 20.56° C | 90% | 1005.1 hPa | 0 mm | - | 2 W/m² | - |
| 1777980812 | 20.56° C | 90% | 1005.1 hPa | 0 mm | - | 1 W/m² | - |
| 1777980508 | 20.56° C | 90% | 1005.1 hPa | 0 mm | - | 0 W/m² | - |
| 1777980206 | 20.56° C | 90% | 1005.3 hPa | 0 mm | - | 0 W/m² | - |
| 1777979901 | 20.56° C | 90% | 1005.3 hPa | 0 mm | - | 0 W/m² | - |
| 1777979597 | 20.56° C | 90% | 1005.2 hPa | 0 mm | - | 0 W/m² | - |
| 1777979293 | 20.56° C | 89% | 1004.8 hPa | 0 mm | - | 0 W/m² | - |
| 1777978991 | 21.11° C | 89% | 1004.8 hPa | 0 mm | - | 0 W/m² | - |
| 1777978687 | 21.11° C | 89% | 1004.9 hPa | 0 mm | - | 0 W/m² | - |
* Rain latest hour (hover to see other rain measurements)
** Current wind speed in m/s (hover to see current wind gust speed)